Location: Fort Wayne
(41.1310°N, 85.1290°W)
Time: 20:42:19
(UTC-05:00)

IDEFIX/ARIANE 42P - Visible Passes

Search period start: 13 February 2016 00:00
Search period end: 23 February 2016 00:00
Orbit: 786 x 802 km, 98.2° (Epoch: 12 February)

Date Brightness Start Highest point End Pass type
(mag) Time Alt. Az. Time Alt. Az. Time Alt. Az.
13 Feb 5.7 06:37:05 10° NE 06:40:21 16° E 06:43:34 10° SE visible
13 Feb 3.9 19:33:48 10° S 19:38:46 42° W 19:43:47 10° NNW visible
14 Feb 2.8 19:05:09 10° S 19:10:24 78° WSW 19:15:42 10° NNW visible
15 Feb 2.7 18:37:00 10° SSE 18:42:09 59° ENE 18:47:20 10° N visible
15 Feb 5.5 20:18:46 10° SW 20:22:08 17° W 20:25:30 10° NW visible
16 Feb 5.4 06:51:07 10° NE 06:55:13 23° E 06:59:16 10° SE visible
16 Feb 4.5 19:48:58 10° SSW 19:53:35 31° W 19:58:13 10° NW visible
17 Feb 6.0 06:24:35 10° ENE 06:26:35 12° E 06:28:36 10° ESE visible
17 Feb 3.4 19:20:00 10° S 19:25:08 56° W 19:30:20 10° NNW visible
18 Feb 2.6 18:51:34 10° SSE 18:56:50 81° ENE 19:02:07 10° N visible
18 Feb 5.8 20:35:05 10° WSW 20:37:02 12° W 20:38:59 10° WNW visible
19 Feb 5.1 20:04:21 10° SW 20:08:25 22° W 20:12:30 10° NW visible
20 Feb 5.7 06:38:06 10° NE 06:41:30 17° E 06:44:51 10° SE visible
20 Feb 4.0 19:34:59 10° SSW 19:39:56 40° W 19:44:53 10° NNW visible
21 Feb 2.9 19:06:17 10° S 19:11:32 74° WSW 19:16:49 10° NNW visible
22 Feb 5.6 20:20:04 10° SW 20:23:17 16° W 20:26:31 10° NW visible
